TimeCST,TemperatureF,Dew PointF,Humidity,Sea Level PressureIn,VisibilityMPH,Wind Direction,Wind SpeedMPH,Gust SpeedMPH,PrecipitationIn,Events,Conditions,WindDirDegrees,DateUTC
12:53 AM,48.9,37.0,64,30.23,10.0,NNE,4.6,-,N/A,,Partly Cloudy,30,2013-01-06 06:53:00
1:53 AM,50.0,37.9,63,30.24,10.0,NNE,3.5,-,N/A,,Overcast,20,2013-01-06 07:53:00
2:53 AM,51.1,37.0,59,30.23,10.0,NE,4.6,-,N/A,,Overcast,50,2013-01-06 08:53:00
3:53 AM,50.0,37.0,61,30.22,10.0,North,6.9,-,N/A,,Overcast,360,2013-01-06 09:53:00
4:53 AM,50.0,37.0,61,30.21,10.0,North,9.2,-,N/A,,Overcast,10,2013-01-06 10:53:00
5:53 AM,50.0,37.9,63,30.21,10.0,North,8.1,-,N/A,,Overcast,10,2013-01-06 11:53:00
6:53 AM,51.1,37.9,61,30.23,10.0,NNE,6.9,-,N/A,,Overcast,30,2013-01-06 12:53:00
7:53 AM,51.1,37.9,61,30.24,10.0,NNE,6.9,-,N/A,,Overcast,30,2013-01-06 13:53:00
8:53 AM,51.1,37.9,61,30.26,10.0,North,8.1,-,N/A,,Overcast,10,2013-01-06 14:53:00
9:53 AM,52.0,37.9,59,30.25,10.0,NNE,4.6,-,N/A,,Overcast,30,2013-01-06 15:53:00
10:53 AM,51.1,39.9,66,30.25,10.0,North,4.6,-,0.01,,Overcast,350,2013-01-06 16:53:00
11:53 AM,51.1,39.9,66,30.21,10.0,North,10.4,-,N/A,,Overcast,10,2013-01-06 17:53:00
12:53 PM,54.0,39.9,59,30.20,10.0,North,9.2,-,N/A,,Overcast,10,2013-01-06 18:53:00
1:53 PM,52.0,43.0,71,30.19,10.0,North,12.7,19.6,0.00,,Overcast,360,2013-01-06 19:53:00
2:53 PM,51.1,45.0,80,30.20,10.0,North,9.2,-,0.00,Rain,Light Rain,360,2013-01-06 20:53:00
3:53 PM,51.1,45.0,80,30.19,10.0,NNE,6.9,-,0.01,Rain,Light Rain,20,2013-01-06 21:53:00
4:25 PM,51.8,44.6,76,30.19,10.0,North,6.9,-,0.00,,Overcast,10,2013-01-06 22:25:00
4:53 PM,51.1,45.0,80,30.20,10.0,NNE,4.6,-,0.00,,Overcast,20,2013-01-06 22:53:00
5:53 PM,50.0,45.0,83,30.22,10.0,North,8.1,-,N/A,,Mostly Cloudy,360,2013-01-06 23:53:00
6:53 PM,50.0,45.0,83,30.24,10.0,North,5.8,-,N/A,,Mostly Cloudy,350,2013-01-07 00:53:00
7:53 PM,50.0,44.1,80,30.26,10.0,North,9.2,-,N/A,,Partly Cloudy,360,2013-01-07 01:53:00
8:53 PM,50.0,43.0,77,30.27,10.0,North,8.1,-,N/A,,Overcast,10,2013-01-07 02:53:00
9:53 PM,50.0,42.1,74,30.26,10.0,NNE,5.8,-,N/A,,Mostly Cloudy,20,2013-01-07 03:53:00
10:53 PM,48.0,41.0,77,30.27,10.0,North,11.5,-,N/A,,Clear,360,2013-01-07 04:53:00
11:53 PM,46.9,39.9,77,30.28,10.0,NNE,5.8,-,N/A,,Clear,20,2013-01-07 05:53:00